Weather observations for the past three days for
Kill Devil Hills, First Flight Airport
Imperial (Metric)
Date Time (edt) Wind (mph) Vis. (mi.) Weather Sky Cond. Temperature (ºF) Relative Humidity Wind Chill (°F) Heat Index (°F) Pressure Precipitation (in)
Air Dwpt 6 hour altimeter (in) sea level (mb) 1 hr 3 hr 6 hr
Max. Min.
21 19:10 E 7 10.00 Fair CLR 78.1 68.9 73% 80 30.03 0.0
21 18:50 E 6 10.00 Fair CLR 78.4 68.9 73% 81 30.03 0.0
21 18:30 SE 6 10.00 Fair CLR 78.3 68.9 73% 81 30.03 0.0
21 18:10 E 5 10.00 Fair CLR 79.2 68.5 70% 82 30.02 0.0
21 17:50 E 5 10.00 Fair CLR 79.5 68.5 69% 82 30.03 0.0
21 17:30 E 5 10.00 Partly Cloudy SCT120 79.3 68 68% 82 30.03 0.0
21 17:10 E 5 10.00 Partly Cloudy SCT120 79.2 67.8 68% 82 30.04 0.0
21 16:50 E 6 10.00 Fair CLR 79.5 69.3 71% 82 30.04 0.0
21 16:30 E 7 10.00 Fair CLR 79.5 69.8 72% 82 30.04 0.0
21 16:10 E 5 10.00 Fair CLR 80.1 69.3 70% 83 30.04 0.0
21 15:50 E 5 10.00 Fair CLR 80.4 70.2 71% 84 30.04 0.0
21 15:30 E 5 10.00 Fair CLR 79.7 70.3 73% 83 30.05 0.0
21 15:10 E 5 10.00 Fair CLR 79.3 70.7 75% 82 30.06 0.0
21 14:50 E 5 10.00 Fair CLR 79.3 71.6 77% 83 30.06 0.0
21 14:30 E 6 10.00 Partly Cloudy SCT013 79.3 71.8 78% 83 30.06 0.0
21 14:10 NE 3 10.00 Fair CLR 79.2 72.1 79% 82 30.07 0.0
21 13:50 NE 5 10.00 Fair CLR 79.2 72.9 81% 83 30.07 0.0
21 13:30 Calm 10.00 Partly Cloudy SCT032 SCT038 SCT050 77.9 73 85% 80 30.07 0.0
21 13:10 E 3 10.00 Fair CLR 77.5 72.3 84% 79 30.07 0.0
21 12:50 E 3 10.00 Fair CLR 77.9 72.1 83% 80 30.08 0.0
21 12:30 NE 3 10.00 Fair CLR 77.9 72.1 83% 80 30.07 0.0
21 12:10 NE 3 10.00 Partly Cloudy SCT016 78.1 72.3 83% 81 30.08 0.0
21 11:50 NE 3 10.00 Partly Cloudy SCT016 78.6 71.4 79% 81 30.08 0.0
21 11:30 Calm 10.00 Fair CLR 78.1 71.2 80% 80 30.07 0.0
21 11:10 Calm 10.00 Fair CLR 77.7 70.9 80% 80 30.07 0.0
21 10:50 Calm 10.00 Partly Cloudy SCT011 77 72.9 87% 78 30.06 0.0
21 10:30 Calm 10.00 Partly Cloudy SCT011 76.5 73.4 90% 77 30.07 0.0
21 10:10 NW 3 10.00 Fair CLR 76.3 73.4 91% 77 30.07 0.0
21 09:50 NW 3 10.00 Partly Cloudy SCT011 SCT016 76.3 73.8 92% 76 30.06 0.0
21 09:30 NW 5 10.00 Mostly Cloudy BKN011 BKN016 76.8 73.8 90% 78 30.06 0.0
21 09:10 W 5 10.00 Mostly Cloudy BKN011 76.6 73.8 91% 77 30.06 0.0
21 08:50 Calm 10.00 Partly Cloudy SCT011 76.5 73.8 91% 77 30.06 0.0
21 08:30 Calm 10.00 Mostly Cloudy BKN011 76.3 73.6 91% 76 30.06 0.0
21 08:10 Calm 10.00 Partly Cloudy SCT011 SCT110 75.7 73.4 92% 75 30.05 0.0
21 07:50 Calm 10.00 Partly Cloudy SCT011 75.4 73.4 94% 74 30.05 0.0
21 07:30 Calm 10.00 Partly Cloudy SCT013 SCT070 75.2 73.2 94% 74 30.05 0.0
21 07:10 W 3 10.00 Mostly Cloudy BKN013 BKN060 75 73.4 95% 73 30.05 0.0
21 06:50 W 3 10.00 Mostly Cloudy BKN015 BKN060 74.3 73 96% 30.05 0.0
21 06:30 W 3 10.00 Mostly Cloudy SCT012 BKN019 BKN024 74.1 73 96% 30.05 0.0
21 06:10 W 6 10.00 Mostly Cloudy SCT010 BKN021 74.3 73.6 98% 30.05 0.0
21 05:50 NW 8 10.00 Overcast OVC010 74.5 74.1 99% 30.04 0.0
21 05:30 W 6 10.00 Overcast OVC010 74.1 73.9 99% 30.04 0.0
21 05:10 W 9 10.00 Mostly Cloudy BKN012 BKN016 BKN025 73.8 73.8 100% 30.03 0.0
21 04:50 W 6 10.00 Overcast OVC010 73.6 73.6 100% 30.02 0.0
21 04:30 W 8 G 16 10.00 Overcast OVC008 73.6 73.6 100% 30.01 0.0
21 04:10 W 7 10.00 Overcast OVC008 73.4 73.4 100% 30.01 0.0
21 03:50 W 7 10.00 Overcast OVC008 73.4 73.4 100% 30 0.0 0.04
21 03:30 SW 10 G 16 7.00 Overcast BKN008 BKN027 OVC110 73.4 73.4 100% 30 0.0 0.03
21 03:10 W 9 G 17 5.00 Overcast SCT010 BKN037 OVC110 73.4 73.4 100% 30.01 0.0 0.02
21 02:50 SW 10 G 17 5.00 Overcast SCT010 BKN095 OVC110 73.6 73.4 99% 30.02 0.0 0.03
21 02:30 SW 10 10.00 Mostly Cloudy SCT010 SCT065 BKN120 73.4 73.4 100% 30.02 0.0 0.01
21 02:10 SW 8 G 16 10.00 Mostly Cloudy SCT010 SCT036 BKN090 73.4 73.4 100% 30.02 0.0 0.01
21 01:50 SW 8 10.00 Partly Cloudy SCT010 SCT070 SCT085 73.2 73 99% 30.03 0.0
21 01:30 SW 10 10.00 Fair CLR 73.4 72.7 98% 30.02 0.0
21 01:10 SW 12 G 21 10.00 Partly Cloudy SCT110 73 72.5 98% 30.02 0.0
21 00:50 SW 9 G 16 10.00 Mostly Cloudy SCT080 BKN110 73.2 72.5 98% 30.02 0.0 0.18
21 00:30 SW 12 G 18 5.00 Overcast SCT016 BKN080 OVC110 73.6 72.1 95% 30.03 0.0 0.17
21 00:10 SW 13 G 29 2.50 Mostly Cloudy SCT013 SCT023 BKN031 78.6 75.7 91% 82 30.04 0.0 0.06
20 23:50 SW 9 G 17 10.00 Fair CLR 79.7 77.2 92% 85 30.01 0.0
20 23:30 SW 8 10.00 Fair CLR 79.7 77.2 92% 85 30.02 0.0
20 23:10 SW 7 10.00 Fair CLR 79.7 77.2 92% 85 30.03 0.0
20 22:50 SW 7 10.00 Fair CLR 79.9 77 91% 85 30.03 0.0
20 22:30 SW 8 10.00 Fair CLR 80.2 77 90% 86 30.03 0.0
20 22:10 SW 7 10.00 Fair CLR 80.6 76.5 87% 87 30.03 0.0
20 21:50 SW 7 10.00 Fair CLR 81 76.5 86% 88 30.04 0.0
20 21:30 SW 7 10.00 Fair CLR 81.3 76.6 86% 88 30.04 0.0
20 21:10 SW 6 10.00 Fair CLR 81.3 76.6 86% 88 30.03 0.0
20 20:50 SW 5 10.00 Fair CLR 81.1 77.2 88% 88 30.02 0.0
20 20:30 SW 3 10.00 Fair CLR 81.5 77.2 87% 89 30.01 0.0
20 20:10 S 7 10.00 Partly Cloudy SCT028 SCT036 81.9 77.2 86% 90 30.01 0.0
20 19:50 S 5 10.00 Partly Cloudy SCT038 SCT050 SCT085 81.5 77.2 87% 89 30.01 0.0
20 19:30 S 3 10.00 Mostly Cloudy SCT027 SCT040 BKN090 81.9 76.3 83% 89 30.01 0.0
20 19:10 S 6 10.00 Partly Cloudy SCT023 SCT028 SCT038 82.9 74.7 76% 90 30 0.0
20 18:50 S 9 G 17 10.00 Partly Cloudy SCT028 SCT040 84.4 76.1 76% 94 30 0.0
20 18:30 S 3 10.00 Partly Cloudy SCT031 SCT038 SCT080 83.8 75.9 77% 93 29.99 0.0
20 18:10 S 5 10.00 Partly Cloudy SCT037 SCT049 SCT070 84.4 75.2 74% 93 30 0.0
20 17:50 S 5 10.00 Partly Cloudy SCT028 SCT037 SCT048 85.1 74.7 71% 93 30 0.0
20 17:30 S 7 10.00 Mostly Cloudy SCT036 BKN085 85.8 74.5 69% 94 30 0.0
20 17:10 SW 8 10.00 Mostly Cloudy SCT036 SCT046 BKN060 85.5 73.9 69% 93 30.01 0.0
20 16:50 S 5 10.00 Mostly Cloudy SCT036 BKN044 BKN065 86 73.4 66% 93 30.01 0.0
20 16:30 SW 9 10.00 Mostly Cloudy SCT038 BKN046 BKN050 87.4 72 60% 94 30.01 0.0
20 16:10 SW 8 10.00 Mostly Cloudy SCT036 BKN047 BKN065 86.7 72.1 62% 93 30.02 0.0
20 15:50 SW 5 10.00 Mostly Cloudy SCT043 SCT050 BKN090 87.4 72.1 61% 94 30.03 0.0
20 15:30 SW 7 10.00 Partly Cloudy SCT043 87.6 72.3 61% 95 30.03 0.0
20 15:10 SW 8 10.00 Partly Cloudy SCT033 SCT041 SCT060 86.4 72.3 63% 93 30.04 0.0
20 14:50 SW 8 10.00 Partly Cloudy SCT035 SCT041 SCT070 86 72 63% 92 30.05 0.0
20 14:30 SW 8 10.00 Partly Cloudy SCT035 86.2 71.6 62% 92 30.06 0.0
20 14:10 SW 9 10.00 Partly Cloudy SCT033 86.2 72.1 63% 93 30.07 0.0
20 13:50 SW 8 10.00 Partly Cloudy SCT035 SCT041 SCT048 85.1 72.3 66% 91 30.07 0.0
20 13:30 W 6 10.00 Overcast SCT027 BKN038 OVC045 84 72 67% 90 30.08 0.0
20 13:10 SW 5 10.00 Overcast OVC027 83.8 72.3 68% 90 30.08 0.0
20 12:50 SW 6 10.00 Mostly Cloudy BKN027 BKN034 83.5 72 68% 89 30.09 0.0
20 12:30 W 6 10.00 Partly Cloudy SCT028 83.7 71.8 68% 89 30.09 0.0
20 12:10 W 10 10.00 Fair CLR 83.5 71.4 67% 89 30.09 0.0
20 11:50 SW 5 G 9 10.00 Partly Cloudy SCT021 83.7 72.5 69% 90 30.09 0.0
20 11:30 W 6 10.00 Fair CLR 82.8 72.5 71% 88 30.08 0.0
20 11:10 SW 9 10.00 Fair CLR 81.7 72.5 74% 87 30.08 0.0
20 10:50 SW 7 10.00 Fair CLR 80.2 71.6 75% 84 30.09 0.0
20 10:30 SW 9 10.00 Partly Cloudy SCT016 79.3 73 81% 83 30.09 0.0
20 10:10 SW 8 10.00 Partly Cloudy SCT100 SCT120 77.9 73.4 86% 80 30.09 0.0
20 09:50 SW 7 10.00 Mostly Cloudy SCT013 SCT100 BKN120 77.5 73.4 87% 79 30.09 0.0
20 09:30 SW 8 10.00 Overcast OVC100 77.2 73.8 89% 79 30.1 0.0
20 09:10 SW 3 10.00 Overcast SCT010 OVC100 77.2 74.5 91% 79 30.1 0.0
20 08:50 SW 5 10.00 Overcast SCT010 OVC100 77 75 94% 78 30.11 0.0
20 08:30 S 3 10.00 Mostly Cloudy BKN110 76.3 75.2 96% 76 30.11 0.0
20 08:10 SW 3 10.00 Partly Cloudy SCT010 SCT110 75.4 75.4 100% 73 30.11 0.0
20 07:50 S 3 10.00 Mostly Cloudy SCT010 SCT035 BKN049 75.6 75.2 99% 74 30.11 0.0
20 07:30 Calm 10.00 Mostly Cloudy SCT010 SCT024 BKN050 75.6 75 98% 74 30.1 0.0
20 07:10 Calm 10.00 Partly Cloudy SCT050 SCT070 75.4 74.8 98% 73 30.09 0.0
20 06:50 Calm 10.00 Fair CLR 75 74.3 98% 73 30.09 0.0
20 06:30 Calm 10.00 Partly Cloudy SCT026 SCT030 74.5 73.9 98% 30.08 0.0
20 06:10 Calm 10.00 Overcast BKN026 OVC032 74.3 73.8 98% 30.07 0.0
20 05:50 Calm 10.00 Overcast BKN026 OVC031 74.3 74.1 99% 30.07 0.0
20 05:30 SW 3 10.00 Overcast OVC031 74.3 74.3 100% 30.07 0.0
20 05:10 W 3 10.00 Mostly Cloudy BKN035 74.3 74.3 100% 30.07 0.0
20 04:50 Calm 10.00 Fair CLR 73.6 73.6 100% 30.06 0.0
20 04:30 Calm 10.00 Partly Cloudy SCT016 SCT060 72.3 72.3 100% 30.06 0.0
20 04:10 Calm 4.00 Mostly Cloudy SCT016 BKN060 71.6 71.6 100% 30.07 0.0
20 03:50 Calm 5.00 Mostly Cloudy SCT021 BKN050 71.8 71.8 100% 30.07 0.0
20 03:30 Calm 5.00 Partly Cloudy SCT050 SCT070 72 72 100% 30.07 0.0
20 03:10 Calm 7.00 Partly Cloudy SCT050 SCT070 72.3 72.3 100% 30.07 0.0
20 02:50 Calm 10.00 Overcast SCT017 SCT031 OVC050 72.1 72.1 100% 30.07 0.0
20 02:30 Calm 10.00 Mostly Cloudy SCT029 SCT038 BKN055 72 72 100% 30.08 0.0
20 02:10 SE 3 10.00 Overcast SCT002 OVC065 71.8 71.8 100% 30.08 0.0
20 01:50 SE 5 5.00 Mostly Cloudy SCT002 SCT037 BKN075 72.3 72.3 100% 30.08 0.0
20 01:30 Calm 7.00 Mostly Cloudy BKN039 72.5 72.5 100% 30.08 0.0
20 01:10 SE 3 7.00 Overcast BKN041 OVC048 72.9 72.9 100% 30.09 0.0
20 00:50 E 3 7.00 Overcast SCT042 BKN048 OVC060 72.9 72.9 100% 30.09 0.0 0.01
20 00:30 Calm 10.00 Overcast BKN045 BKN060 OVC075 72.9 72.9 100% 30.1 0.0
20 00:10 Calm 10.00 Overcast SCT075 OVC095 73 73 100% 30.1 0.0
19 23:50 SE 5 10.00 Mostly Cloudy BKN095 73.4 73.4 100% 30.1 0.0
19 23:30 E 3 10.00 Partly Cloudy SCT050 SCT095 73.2 73 99% 30.1 0.0
19 23:10 SE 5 10.00 Mostly Cloudy BKN055 BKN095 72.9 72.7 99% 30.11 0.0
19 22:50 E 3 10.00 Partly Cloudy SCT065 72.3 72.1 99% 30.11 0.0
19 22:30 E 3 10.00 Partly Cloudy SCT038 71.8 71.8 100% 30.11 0.0
19 22:10 E 3 10.00 Partly Cloudy SCT014 SCT041 71.8 71.8 100% 30.11 0.0
19 21:50 E 3 10.00 Partly Cloudy SCT041 SCT095 71.8 71.8 100% 30.11 0.0
19 21:30 Calm 7.00 Partly Cloudy SCT039 SCT110 72 72 100% 30.1 0.0
19 21:10 Calm 10.00 Partly Cloudy SCT014 SCT039 SCT110 72 72 100% 30.1 0.0
19 20:50 Calm 10.00 Mostly Cloudy BKN014 BKN039 BKN100 72.3 72.3 100% 30.09 0.0
19 20:30 Calm 10.00 Mostly Cloudy BKN014 BKN038 BKN050 72.7 72.7 100% 30.09 0.0
19 20:10 Calm 10.00 Mostly Cloudy SCT039 SCT045 BKN070 73 72.9 99% 30.09 0.0
19 19:50 Calm 10.00 Mostly Cloudy BKN042 BKN050 BKN065 73.4 72.7 98% 30.08 0.0 0.01
19 19:30 Calm 10.00 Mostly Cloudy SCT042 BKN050 BKN065 73.8 72.7 96% 30.08 0.0 0.01
19 19:10 Calm 10.00 Overcast SCT039 BKN048 OVC080 74.5 72.7 94% 30.07 0.0
19 18:50 Calm 10.00 Overcast SCT033 BKN045 OVC095 74.7 72.1 92% 30.07 0.0
19 18:30 E 3 10.00 Mostly Cloudy SCT060 SCT070 BKN090 75 71.8 90% 74 30.07 0.0
19 18:10 E 3 10.00 Fair CLR 75.2 72.1 90% 74 30.07 0.0
19 17:50 NE 3 10.00 Partly Cloudy SCT032 SCT042 SCT065 75.2 72.5 91% 74 30.07 0.0
19 17:30 E 5 10.00 Mostly Cloudy SCT035 BKN048 BKN075 75 72.9 93% 74 30.07 0.0
19 17:10 E 3 10.00 Overcast SCT046 BKN065 OVC110 74.5 72.5 94% 30.07 0.0
19 16:50 E 5 10.00 Mostly Cloudy SCT055 SCT070 BKN085 74.8 71.8 90% 30.07 0.0
19 16:30 E 5 10.00 Partly Cloudy SCT080 75.2 71.4 88% 75 30.07 0.0
19 16:10 E 5 10.00 Partly Cloudy SCT080 75.9 71.4 86% 76 30.07 0.0
19 15:50 E 6 10.00 Partly Cloudy SCT095 77.2 70.9 81% 79 30.07 0.0
19 15:30 E 5 10.00 Mostly Cloudy BKN085 BKN120 76.8 72 85% 78 30.07 0.0
19 15:10 E 3 10.00 Overcast SCT075 BKN085 OVC110 75.4 72.1 90% 75 30.08 0.0
19 14:50 E 3 10.00 Overcast SCT029 BKN070 OVC080 74.8 72 91% 30.09 0.0
19 14:30 NE 5 10.00 Overcast SCT037 BKN070 OVC090 74.8 71.8 90% 30.08 0.0
19 14:10 NE 3 10.00 Overcast SCT004 OVC090 73.9 72 94% 30.08 0.0
19 13:50 NE 3 10.00 Overcast SCT004 BKN041 OVC090 75.7 72.3 89% 76 30.09 0.0
19 13:30 NE 5 10.00 Overcast SCT041 OVC100 77 72.9 87% 78 30.09 0.0
19 13:10 Calm 10.00 Mostly Cloudy BKN110 75.2 73.2 94% 74 30.09 0.0
19 12:50 Calm 10.00 Overcast SCT026 OVC110 74.3 73.4 97% 30.09 0.0
19 12:30 NE 3 10.00 Overcast OVC024 73.6 73.4 99% 30.09 0.0
19 12:10 Calm 10.00 Overcast SCT004 BKN020 OVC029 73 73 100% 30.09 0.0
19 11:50 NE 3 10.00 Overcast BKN002 BKN007 OVC013 73.4 73.4 100% 30.09 0.0 0.03
19 11:30 Calm 5.00 Overcast BKN002 BKN009 OVC047 73 73 100% 30.08 0.0 0.02
19 11:10 N 6 10.00 Overcast BKN004 BKN012 OVC050 73.6 73.4 99% 30.08 0.0
19 10:50 N 3 7.00 Overcast SCT002 BKN012 OVC090 75 74.1 97% 73 30.07 0.0
19 10:30 N 3 10.00 Mostly Cloudy BKN090 75 74.8 99% 72 30.07 0.0
19 10:10 Calm 10.00 Overcast SCT012 BKN027 OVC090 73.8 73.8 100% 30.06 0.0
19 09:50 Calm 10.00 Overcast SCT006 BKN011 OVC014 73.4 73.4 100% 30.06 0.0
19 09:30 Calm 10.00 Overcast BKN006 OVC013 74.7 74.7 100% 30.07 0.0
19 09:10 SW 5 10.00 Overcast BKN006 BKN009 OVC048 74.8 74.8 100% 30.06 0.0
19 08:50 Calm 10.00 Overcast BKN009 OVC016 74.7 74.7 100% 30.06 0.0
19 08:30 Calm 10.00 Mostly Cloudy BKN009 BKN021 74.8 74.8 100% 30.06 0.0
19 08:10 Calm 10.00 Mostly Cloudy SCT007 BKN011 BKN024 74.3 74.3 100% 30.05 0.0
19 07:50 Calm 10.00 Mostly Cloudy BKN009 BKN024 BKN120 73.6 73.6 100% 30.04 0.0
19 07:30 Calm 10.00 Mostly Cloudy BKN009 BKN120 72.7 72.7 100% 30.04 0.0
19 07:10 Calm 7.00 Mostly Cloudy SCT007 SCT017 BKN120 72.5 72.5 100% 30.03 0.0
19 06:50 Calm 7.00 Overcast SCT007 OVC012 73 73 100% 30.02 0.0
19 06:30 Calm 5.00 Mostly Cloudy BKN012 BKN017 BKN023 73.4 73.4 100% 30.02 0.0
19 06:10 Calm 10.00 Mostly Cloudy BKN014 BKN060 73.8 73.8 100% 30.01 0.0
19 05:50 Calm 10.00 Overcast SCT010 BKN014 OVC075 73.8 73.8 100% 30 0.0 0.01
19 05:30 Calm 10.00 Overcast BKN010 OVC014 73.6 73.6 100% 29.99 0.0
19 05:10 Calm 10.00 Mostly Cloudy BKN010 BKN023 73.4 73.2 99% 29.99 0.0
19 04:50 Calm 10.00 Partly Cloudy SCT025 73.4 72.9 98% 29.98 0.0
19 04:30 Calm 10.00 Partly Cloudy SCT024 73.4 72.9 98% 29.98 0.0
19 04:10 SW 6 10.00 Mostly Cloudy SCT010 BKN016 BKN024 73.8 73.2 98% 29.98 0.0
19 03:50 SW 5 10.00 Overcast BKN010 OVC014 74.1 73.4 98% 29.99 0.0
19 03:30 SW 3 10.00 Mostly Cloudy BKN012 74.1 72.9 96% 29.99 0.0
19 03:10 W 5 10.00 Partly Cloudy SCT013 74.1 72.7 95% 29.98 0.0
19 02:50 W 6 10.00 Partly Cloudy SCT013 73.6 72.3 96% 29.98 0.0
19 02:30 SW 6 10.00 Fair CLR 73 71.6 95% 29.97 0.0
19 02:10 W 6 10.00 Fair CLR 72.5 71.4 96% 29.96 0.0
19 01:50 W 6 10.00 Partly Cloudy SCT026 72.3 71.8 98% 29.97 0.0
19 01:30 W 7 10.00 Fair CLR 72.3 72.3 100% 29.98 0.0
19 01:10 W 9 G 17 10.00 Partly Cloudy SCT010 SCT060 SCT090 72.5 72.5 100% 29.99 0.0
19 00:50 W 9 G 17 10.00 Partly Cloudy SCT008 SCT060 SCT120 72.9 72.9 100% 29.99 0.0
19 00:30 SW 8 10.00 Partly Cloudy SCT008 SCT018 SCT090 73 73 100% 29.99 0.0
19 00:10 SW 7 10.00 Partly Cloudy SCT120 72.9 72.9 100% 29.99 0.0
18 23:50 SW 7 10.00 Partly Cloudy SCT120 72.9 72.9 100% 29.99 0.0
18 23:30 SW 5 10.00 Partly Cloudy SCT008 SCT120 73.4 73.4 100% 29.99 0.0
18 23:10 SW 6 10.00 Mostly Cloudy BKN006 BKN055 73.6 73.6 100% 29.99 0.0
18 22:50 SW 5 10.00 Fair CLR 73.4 73.4 100% 29.99 0.0 0.01
18 22:30 SW 7 10.00 Partly Cloudy SCT120 72.9 72.9 100% 29.98 0.0 0.01
18 22:10 Calm 7.00 Mostly Cloudy BKN120 72.5 72.3 99% 29.98 0.0
18 21:50 S 5 4.00 Overcast OVC120 72.3 72 99% 29.97 0.0 0.06
18 21:30 SW 5 10.00 Mostly Cloudy BKN120 71.8 71.2 98% 29.97 0.0 0.03
18 21:10 SW 7 7.00 Mostly Cloudy BKN120 72.1 71.6 98% 29.97 0.0 0.01
18 20:50 S 6 10.00 Partly Cloudy SCT120 72.5 72.3 99% 29.97 0.0 0.05
18 20:30 SW 8 10.00 Partly Cloudy SCT100 SCT120 72.5 72.1 99% 29.96 0.0 0.05
18 20:10 S 5 10.00 Mostly Cloudy SCT044 SCT060 BKN110 71.8 71.4 99% 29.95 0.0 0.04
18 19:50 W 6 3.00 Overcast SCT046 BKN055 OVC110 71.8 70.9 97% 29.95 0.0 0.45
18 19:30 W 6 3.00 Overcast SCT021 BKN046 OVC065 71.8 70.3 95% 29.95 0.0 0.27
Date Time (edt) Wind (mph) Vis. (mi.) Weather Sky Cond. Air Dwpt Max. Min. Relative Humidity Wind Chill (°F) Heat Index (°F) altimeter (in) sea level (mb) 1 hr 3 hr 6 hr
6 hour
Temperature (ºF) Pressure Precipitation (in)